Weather History for KTAZ - November, 2011

Change the Weather History Date:

Wednesday, November 16, 2011

  Actual Average (KSPI) Record (KSPI)
Temperature  
Mean Temperature 42 °F 43 °F  
Max Temperature 48 °F 52 °F 76 °F (2001)
Min Temperature 35 °F 34 °F 7 °F (1959)
Degree Days  
Heating Degree Days 24 22  
Month to date heating degree days 297  
Since 1 July heating degree days 707  
Cooling Degree Days 0 0  
Month to date cooling degree days 0  
Year to date cooling degree days 1121  
Moisture  
Dew Point 26 °F    
Average Humidity 55    
Maximum Humidity 71    
Minimum Humidity 37    
Precipitation  
Precipitation 0.00 in 0.10 in 1.21 in (1987)
Month to date precipitation 1.68  
Year to date precipitation 33.38  
Snow  
Snow 0.00 in 0.00 in 0.80 in (1951)
Month to date snowfall 0.1  
Since 1 July snowfall 0.1  
Since 1 September snowfall 0.1  
Snow Depth -    
Sea Level Pressure  
Sea Level Pressure 30.06 in    
Wind  
Wind Speed 15 mph (NNW)    
Max Wind Speed 22 mph    
Max Gust Speed 30 mph    
Visibility 10 miles    
Events      
T = Trace of Precipitation, MM = Missing Value Source: NWS Daily Summary

Daily Weather History Graph

Daily Weather History Graph

Search for Another Location

Airport or City:

Trip Planner

Search our weather history database for the weather conditions in past years. The results will help you decide how hot, cold, wet, or windy it might be!

Date:

Astronomy

Nov. 16, 2011 Rise Set
Actual Time 6:42 AM CST 4:41 PM CST
Civil Twilight 6:13 AM CST 5:10 PM CST
Nautical Twilight 5:40 AM CST 5:42 PM CST
Astronomical Twilight 5:08 AM CST 6:14 PM CST
Moon 9:55 PM CST (11/16) 11:18 AM CST (11/16)
Length of Visible Light 10h 56m
Length of Day
9h 59m
Waning Gibbous, 70% of the Moon is Illuminated
Nov 16
Waning Gibbous
Nov 18
Last Quarter
Nov 25
New
Dec 2
First Quarter
Dec 10
Full

Hourly Weather History & Observations

Time (CST) Temp. Windchill Dew Point Humidity Pressure Visibility Wind Dir Wind Speed Gust Speed Precip Events Conditions
12:15 AM 48.2 °F - 39.2 °F 71% 29.90 in 10.0 mi NNW 13.8 mph - N/A   Overcast
12:35 AM 48.2 °F - 37.4 °F 66% 29.91 in 10.0 mi NNW 11.5 mph - N/A   Overcast
12:55 AM 46.4 °F 39.8 °F 35.6 °F 66% 29.91 in 10.0 mi NNW 16.1 mph 19.6 mph N/A   Mostly Cloudy
1:15 AM 46.4 °F 38.7 °F 33.8 °F 62% 29.90 in 10.0 mi NNW 20.7 mph 26.5 mph N/A   Scattered Clouds
1:35 AM 44.6 °F 37.2 °F 33.8 °F 66% 29.92 in 10.0 mi NNW 17.3 mph - N/A   Clear
1:55 AM 44.6 °F 37.2 °F 33.8 °F 66% 29.92 in 10.0 mi NNW 17.3 mph 21.9 mph N/A   Clear
2:15 AM 42.8 °F 35.1 °F 32.0 °F 66% 29.93 in 10.0 mi North 16.1 mph - N/A   Clear
2:35 AM 42.8 °F 34.8 °F 30.2 °F 61% 29.93 in 10.0 mi NNW 17.3 mph - N/A   Clear
2:55 AM 42.8 °F 35.8 °F 30.2 °F 61% 29.94 in 10.0 mi North 13.8 mph - N/A   Clear
3:15 AM 42.8 °F 36.2 °F 28.4 °F 57% 29.95 in 10.0 mi North 12.7 mph - N/A   Clear
3:35 AM 41.0 °F 34.3 °F 28.4 °F 61% 29.95 in 10.0 mi North 11.5 mph - N/A   Clear
3:55 AM 39.2 °F 32.0 °F 28.4 °F 65% 29.95 in 10.0 mi North 11.5 mph - N/A   Clear
4:15 AM 39.2 °F 31.6 °F 28.4 °F 65% 29.95 in 10.0 mi North 12.7 mph - N/A   Clear
4:35 AM 39.2 °F 32.0 °F 28.4 °F 65% 29.96 in 10.0 mi North 11.5 mph - N/A   Clear
4:55 AM 39.2 °F 32.5 °F 28.4 °F 65% 29.97 in 10.0 mi North 10.4 mph - N/A   Clear
5:15 AM 37.4 °F 29.8 °F 28.4 °F 70% 29.98 in 10.0 mi NNW 11.5 mph - N/A   Clear
5:35 AM 37.4 °F 28.9 °F 26.6 °F 65% 29.99 in 10.0 mi NNW 13.8 mph - N/A   Clear
5:55 AM 37.4 °F 29.3 °F 26.6 °F 65% 30.00 in 10.0 mi NNW 12.7 mph - N/A   Clear
6:15 AM 37.4 °F 28.9 °F 26.6 °F 65% 30.02 in 10.0 mi NNW 13.8 mph - N/A   Clear
6:35 AM 35.6 °F 25.9 °F 26.6 °F 70% 30.02 in 10.0 mi NNW 16.1 mph - N/A   Clear
6:55 AM 35.6 °F 26.6 °F 26.6 °F 70% 30.04 in 10.0 mi NNW 13.8 mph - N/A   Clear
7:15 AM 35.6 °F 26.6 °F 24.8 °F 65% 30.05 in 10.0 mi NNW 13.8 mph - N/A   Clear
7:35 AM 35.6 °F 27.5 °F 26.6 °F 70% 30.07 in 10.0 mi North 11.5 mph - N/A   Clear
7:55 AM 39.2 °F 31.2 °F 26.6 °F 61% 30.08 in 10.0 mi North 13.8 mph - N/A   Clear
8:15 AM 39.2 °F 30.8 °F 26.6 °F 61% 30.09 in 10.0 mi North 15.0 mph 19.6 mph N/A   Clear
8:35 AM 41.0 °F 31.6 °F 24.8 °F 53% 30.09 in 10.0 mi North 20.7 mph 26.5 mph N/A   Clear
8:55 AM 41.0 °F 31.6 °F 24.8 °F 53% 30.09 in 10.0 mi North 20.7 mph 25.3 mph N/A   Clear
9:15 AM 39.2 °F 29.6 °F 24.8 °F 56% 30.10 in 10.0 mi North 19.6 mph 26.5 mph N/A   Clear
9:35 AM 39.2 °F 29.3 °F 24.8 °F 56% 30.09 in 10.0 mi North 20.7 mph 25.3 mph N/A   Clear
9:55 AM 39.2 °F 29.6 °F 24.8 °F 56% 30.10 in 10.0 mi North 19.6 mph - N/A   Clear
10:15 AM 42.8 °F 34.3 °F 24.8 °F 49% 30.11 in 10.0 mi North 19.6 mph 26.5 mph N/A   Clear
10:35 AM 42.8 °F 34.0 °F 23.0 °F 46% 30.10 in 10.0 mi NNW 20.7 mph 29.9 mph N/A   Clear
10:55 AM 42.8 °F 34.0 °F 24.8 °F 49% 30.10 in 10.0 mi North 20.7 mph 25.3 mph N/A   Clear
11:15 AM 42.8 °F 34.8 °F 24.8 °F 49% 30.10 in 10.0 mi North 17.3 mph 23.0 mph N/A   Clear
11:35 AM 42.8 °F 34.3 °F 24.8 °F 49% 30.10 in 10.0 mi North 19.6 mph 25.3 mph N/A   Clear
11:55 AM 44.6 °F 37.4 °F 24.8 °F 46% 30.09 in 10.0 mi North 16.1 mph 21.9 mph N/A   Clear
12:15 PM 44.6 °F 36.6 °F 24.8 °F 46% 30.09 in 10.0 mi NNW 19.6 mph - N/A   Clear
12:35 PM 44.6 °F 37.2 °F 24.8 °F 46% 30.10 in 10.0 mi North 17.3 mph 23.0 mph N/A   Clear
12:55 PM 44.6 °F 36.1 °F 21.2 °F 39% 30.11 in 10.0 mi NNW 21.9 mph - N/A   Clear
1:15 PM 44.6 °F 36.4 °F 21.2 °F 39% 30.11 in 10.0 mi NNW 20.7 mph 24.2 mph N/A   Clear
1:35 PM 44.6 °F 36.9 °F 19.4 °F 37% 30.11 in 10.0 mi North 18.4 mph 27.6 mph N/A   Clear
1:55 PM 44.6 °F 37.8 °F 21.2 °F 39% 30.12 in 10.0 mi North 15.0 mph - N/A   Clear
2:15 PM 42.8 °F 34.5 °F 19.4 °F 39% 30.12 in 10.0 mi NNW 18.4 mph - N/A   Clear
2:35 PM 42.8 °F 34.8 °F 19.4 °F 39% 30.13 in 10.0 mi NNW 17.3 mph 24.2 mph N/A   Scattered Clouds
2:55 PM 42.8 °F 35.8 °F 21.2 °F 42% 30.14 in 10.0 mi North 13.8 mph - N/A   Scattered Clouds
3:15 PM 42.8 °F 35.4 °F 21.2 °F 42% 30.14 in 10.0 mi North 15.0 mph - N/A   Clear
3:35 PM 42.8 °F 36.6 °F 21.2 °F 42% 30.15 in 10.0 mi NNW 11.5 mph - N/A   Clear
3:55 PM 42.8 °F 36.6 °F 21.2 °F 42% 30.15 in 10.0 mi NNW 11.5 mph - N/A   Clear
4:15 PM 41.0 °F 35.2 °F 21.2 °F 45% 30.16 in 10.0 mi NNW 9.2 mph - N/A   Clear
4:35 PM 41.0 °F 35.8 °F 23.0 °F 49% 30.16 in 10.0 mi NNW 8.1 mph - N/A   Scattered Clouds
4:55 PM 41.0 °F 34.3 °F 21.2 °F 45% 30.17 in 10.0 mi NNW 11.5 mph - N/A   Mostly Cloudy
5:15 PM 39.2 °F 32.0 °F 19.4 °F 45% 30.18 in 10.0 mi NNW 11.5 mph - N/A   Mostly Cloudy
5:35 PM 39.2 °F 33.0 °F 21.2 °F 49% 30.19 in 10.0 mi NNW 9.2 mph - N/A   Mostly Cloudy
5:55 PM 39.2 °F 34.2 °F 23.0 °F 52% 30.20 in 10.0 mi NNW 6.9 mph - N/A   Mostly Cloudy
6:15 PM 39.2 °F 35.0 °F 23.0 °F 52% 30.20 in 10.0 mi NNW 5.8 mph - N/A   Scattered Clouds
6:35 PM 37.4 °F 32.1 °F 24.8 °F 60% 30.20 in 10.0 mi NNW 6.9 mph - N/A   Scattered Clouds
6:55 PM 37.4 °F 32.1 °F 24.8 °F 60% 30.20 in 10.0 mi NNW 6.9 mph - N/A   Clear
7:15 PM 37.4 °F 33.8 °F 24.8 °F 60% 30.20 in 10.0 mi NNW 4.6 mph - N/A   Clear
7:35 PM 37.4 °F 32.8 °F 24.8 °F 60% 30.20 in 10.0 mi NNW 5.8 mph - N/A   Clear
7:55 PM 37.4 °F 33.8 °F 24.8 °F 60% 30.20 in 10.0 mi NNW 4.6 mph - N/A   Clear
8:15 PM 37.4 °F 33.8 °F 24.8 °F 60% 30.20 in 10.0 mi NW 4.6 mph - N/A   Clear
8:35 PM 37.4 °F 32.8 °F 24.8 °F 60% 30.20 in 10.0 mi NW 5.8 mph - N/A   Clear
8:55 PM 37.4 °F 32.8 °F 21.2 °F 52% 30.21 in 10.0 mi NW 5.8 mph - N/A   Scattered Clouds
9:15 PM 37.4 °F 32.8 °F 21.2 °F 52% 30.21 in 10.0 mi NW 5.8 mph - N/A   Scattered Clouds
9:35 PM 37.4 °F 32.8 °F 21.2 °F 52% 30.21 in 10.0 mi NW 5.8 mph - N/A   Scattered Clouds
9:55 PM 37.4 °F 33.8 °F 21.2 °F 52% 30.22 in 10.0 mi WNW 4.6 mph - N/A   Mostly Cloudy
10:15 PM 37.4 °F 32.8 °F 21.2 °F 52% 30.22 in 10.0 mi WNW 5.8 mph - N/A   Overcast
10:35 PM 37.4 °F 32.1 °F 21.2 °F 52% 30.22 in 10.0 mi WNW 6.9 mph - N/A   Overcast
10:55 PM 35.6 °F 30.7 °F 21.2 °F 56% 30.22 in 10.0 mi WNW 5.8 mph - N/A   Overcast
11:15 PM 35.6 °F 31.7 °F 21.2 °F 56% 30.22 in 10.0 mi WNW 4.6 mph - N/A   Overcast
11:35 PM 35.6 °F 31.7 °F 21.2 °F 56% 30.22 in 10.0 mi WNW 4.6 mph - N/A   Mostly Cloudy
11:55 PM 33.8 °F 28.6 °F 21.2 °F 60% 30.23 in 10.0 mi West 5.8 mph - N/A   Scattered Clouds